Year,Month,Day,Hour,Minute,Value (Times are PST for temperature in C)
2020,07,30,00,00,17.30
2020,07,30,00,01,17.30
2020,07,30,00,02,17.30
2020,07,30,00,03,17.20
2020,07,30,00,04,17.20
2020,07,30,00,05,17.20
2020,07,30,00,06,17.20
2020,07,30,00,07,17.20
2020,07,30,00,08,17.20
2020,07,30,00,09,17.20
2020,07,30,00,10,17.20
2020,07,30,00,11,17.20
2020,07,30,00,12,17.20
2020,07,30,00,13,17.20
2020,07,30,00,14,17.20
2020,07,30,00,15,17.20
2020,07,30,00,16,17.20
2020,07,30,00,17,17.20
2020,07,30,00,18,17.10
2020,07,30,00,19,17.10
2020,07,30,00,20,17.10
2020,07,30,00,21,17.10
2020,07,30,00,22,17.10
2020,07,30,00,23,17.10
2020,07,30,00,24,17.10
2020,07,30,00,25,17.00
2020,07,30,00,26,17.00
2020,07,30,00,27,17.00
2020,07,30,00,28,16.90
2020,07,30,00,29,16.90
2020,07,30,00,30,16.90
2020,07,30,00,31,16.90
2020,07,30,00,32,16.80
2020,07,30,00,33,16.80
2020,07,30,00,34,16.80
2020,07,30,00,35,16.80
2020,07,30,00,36,16.70
2020,07,30,00,37,16.70
2020,07,30,00,38,16.70
2020,07,30,00,39,16.60
2020,07,30,00,40,16.60
2020,07,30,00,41,16.60
2020,07,30,00,42,16.60
2020,07,30,00,43,16.50
2020,07,30,00,44,16.50
2020,07,30,00,45,16.40
2020,07,30,00,46,16.40
2020,07,30,00,47,16.40
2020,07,30,00,48,16.40
2020,07,30,00,49,16.30
2020,07,30,00,50,16.30
2020,07,30,00,51,16.30
2020,07,30,00,52,16.30
2020,07,30,00,53,16.30
2020,07,30,00,54,16.30
2020,07,30,00,55,16.30
2020,07,30,00,56,16.30
2020,07,30,00,57,16.30
2020,07,30,00,58,16.40
2020,07,30,00,59,16.40
2020,07,30,01,00,16.40
2020,07,30,01,01,16.40
2020,07,30,01,02,16.40
2020,07,30,01,03,16.40
2020,07,30,01,04,16.50
2020,07,30,01,05,16.50
2020,07,30,01,06,16.50
2020,07,30,01,07,16.60
2020,07,30,01,08,16.60
2020,07,30,01,09,16.60
2020,07,30,01,10,16.60
2020,07,30,01,11,16.70
2020,07,30,01,12,16.70
2020,07,30,01,13,16.70
2020,07,30,01,14,16.70
2020,07,30,01,15,16.80
2020,07,30,01,16,16.80
2020,07,30,01,17,16.80
2020,07,30,01,18,16.80
2020,07,30,01,19,16.80
2020,07,30,01,20,16.80
2020,07,30,01,21,16.80
2020,07,30,01,22,16.70
2020,07,30,01,23,16.70
2020,07,30,01,24,16.70
2020,07,30,01,25,16.70
2020,07,30,01,26,16.70
2020,07,30,01,27,16.70
2020,07,30,01,28,16.70
2020,07,30,01,29,16.60
2020,07,30,01,30,16.60
2020,07,30,01,31,16.60
2020,07,30,01,32,16.50
2020,07,30,01,33,16.50
2020,07,30,01,34,16.50
2020,07,30,01,35,16.40
2020,07,30,01,36,16.40
2020,07,30,01,37,16.30
2020,07,30,01,38,16.30
2020,07,30,01,39,16.30
2020,07,30,01,40,16.20
2020,07,30,01,41,16.20
2020,07,30,01,42,16.10
2020,07,30,01,43,16.10
2020,07,30,01,44,16.10
2020,07,30,01,45,16.10
2020,07,30,01,46,16.00
2020,07,30,01,47,16.00
2020,07,30,01,48,16.00
2020,07,30,01,49,16.00
2020,07,30,01,50,15.90
2020,07,30,01,51,15.90
2020,07,30,01,52,15.90
2020,07,30,01,53,15.90
2020,07,30,01,54,15.90
2020,07,30,01,55,15.90
2020,07,30,01,56,15.90
2020,07,30,01,57,15.80
2020,07,30,01,58,15.90
2020,07,30,01,59,15.90
2020,07,30,02,00,15.80
2020,07,30,02,01,15.80
2020,07,30,02,02,15.80
2020,07,30,02,03,15.80
2020,07,30,02,04,15.80
2020,07,30,02,05,15.80
2020,07,30,02,06,15.80
2020,07,30,02,07,15.80
2020,07,30,02,08,15.80
2020,07,30,02,09,15.70
2020,07,30,02,10,15.70
2020,07,30,02,11,15.70
2020,07,30,02,12,15.70
2020,07,30,02,13,15.70
2020,07,30,02,14,15.60
2020,07,30,02,15,15.60
2020,07,30,02,16,15.60
2020,07,30,02,17,15.60
2020,07,30,02,18,15.60
2020,07,30,02,19,15.50
2020,07,30,02,20,15.50
2020,07,30,02,21,15.50
2020,07,30,02,22,15.50
2020,07,30,02,23,15.50
2020,07,30,02,24,15.40
2020,07,30,02,25,15.40
2020,07,30,02,26,15.40
2020,07,30,02,27,15.40
2020,07,30,02,28,15.40
2020,07,30,02,29,15.40
2020,07,30,02,30,15.30
2020,07,30,02,31,15.30
2020,07,30,02,32,15.30
2020,07,30,02,33,15.30
2020,07,30,02,34,15.30
2020,07,30,02,35,15.30
2020,07,30,02,36,15.30
2020,07,30,02,37,15.30
2020,07,30,02,38,15.30
2020,07,30,02,39,15.40
2020,07,30,02,40,15.40
2020,07,30,02,41,15.40
2020,07,30,02,42,15.40
2020,07,30,02,43,15.40
2020,07,30,02,44,15.40
2020,07,30,02,45,15.40
2020,07,30,02,46,15.40
2020,07,30,02,47,15.40
2020,07,30,02,48,15.40
2020,07,30,02,49,15.40
2020,07,30,02,50,15.40
2020,07,30,02,51,15.30
2020,07,30,02,52,15.30
2020,07,30,02,53,15.30
2020,07,30,02,54,15.30
2020,07,30,02,55,15.30
2020,07,30,02,56,15.20
2020,07,30,02,57,15.20
2020,07,30,02,58,15.20
2020,07,30,02,59,15.20
2020,07,30,03,00,15.10
2020,07,30,03,01,15.10
2020,07,30,03,02,15.10
2020,07,30,03,03,15.00
2020,07,30,03,04,15.00
2020,07,30,03,05,15.00
2020,07,30,03,06,15.00
2020,07,30,03,07,14.90
2020,07,30,03,08,14.90
2020,07,30,03,09,14.90
2020,07,30,03,10,14.90
2020,07,30,03,11,14.90
2020,07,30,03,12,14.90
2020,07,30,03,13,14.90
2020,07,30,03,14,14.90
2020,07,30,03,15,14.90
2020,07,30,03,16,14.90
2020,07,30,03,17,14.90
2020,07,30,03,18,14.90
2020,07,30,03,19,14.90
2020,07,30,03,20,14.90
2020,07,30,03,21,14.90
2020,07,30,03,22,14.90
2020,07,30,03,23,14.90
2020,07,30,03,24,14.90
2020,07,30,03,25,14.90
2020,07,30,03,26,14.90
2020,07,30,03,27,14.90
2020,07,30,03,28,14.90
2020,07,30,03,29,14.90
2020,07,30,03,30,14.90
2020,07,30,03,31,14.90
2020,07,30,03,32,14.90
2020,07,30,03,33,14.90
2020,07,30,03,34,14.90
2020,07,30,03,35,14.90
2020,07,30,03,36,14.80
2020,07,30,03,37,14.80
2020,07,30,03,38,14.80
2020,07,30,03,39,14.80
2020,07,30,03,40,14.70
2020,07,30,03,41,14.70
2020,07,30,03,42,14.70
2020,07,30,03,43,14.70
2020,07,30,03,44,14.70
2020,07,30,03,45,14.60
2020,07,30,03,46,14.60
2020,07,30,03,47,14.60
2020,07,30,03,48,14.60
2020,07,30,03,49,14.50
2020,07,30,03,50,14.50
2020,07,30,03,51,14.50
2020,07,30,03,52,14.50
2020,07,30,03,53,14.50
2020,07,30,03,54,14.40
2020,07,30,03,55,14.40
2020,07,30,03,56,14.40
2020,07,30,03,57,14.40
2020,07,30,03,58,14.40
2020,07,30,03,59,14.40
2020,07,30,04,00,14.40
2020,07,30,04,01,14.40
2020,07,30,04,02,14.40
2020,07,30,04,03,14.40
2020,07,30,04,04,14.40
2020,07,30,04,05,14.40
2020,07,30,04,06,14.40
2020,07,30,04,07,14.40
2020,07,30,04,08,14.40
2020,07,30,04,09,14.40
2020,07,30,04,10,14.40
2020,07,30,04,11,14.40
2020,07,30,04,12,14.40
2020,07,30,04,13,14.40
2020,07,30,04,14,14.40
2020,07,30,04,15,14.40
2020,07,30,04,16,14.40
2020,07,30,04,17,14.40
2020,07,30,04,18,14.30
2020,07,30,04,19,14.40
2020,07,30,04,20,14.30
2020,07,30,04,21,14.30
2020,07,30,04,22,14.30
2020,07,30,04,23,14.30
2020,07,30,04,24,14.30
2020,07,30,04,25,14.30
2020,07,30,04,26,14.20
2020,07,30,04,27,14.20
2020,07,30,04,28,14.20
2020,07,30,04,29,14.20
2020,07,30,04,30,14.20
2020,07,30,04,31,14.20
2020,07,30,04,32,14.20
2020,07,30,04,33,14.20
2020,07,30,04,34,14.20
2020,07,30,04,35,14.20
2020,07,30,04,36,14.20
2020,07,30,04,37,14.20
2020,07,30,04,38,14.20
2020,07,30,04,39,14.20
2020,07,30,04,40,14.20
2020,07,30,04,41,14.20
2020,07,30,04,42,14.20
2020,07,30,04,43,14.20
2020,07,30,04,44,14.20
2020,07,30,04,45,14.10
2020,07,30,04,46,14.10
2020,07,30,04,47,14.10
2020,07,30,04,48,14.10
2020,07,30,04,49,14.10
2020,07,30,04,50,14.10
2020,07,30,04,51,14.10
2020,07,30,04,52,14.10
2020,07,30,04,53,14.10
2020,07,30,04,54,14.10
2020,07,30,04,55,14.10
2020,07,30,04,56,14.10
2020,07,30,04,57,14.00
2020,07,30,04,58,14.00
2020,07,30,04,59,14.00
2020,07,30,05,00,14.00
2020,07,30,05,01,14.00
2020,07,30,05,02,14.00
2020,07,30,05,03,14.00
2020,07,30,05,04,14.00
2020,07,30,05,05,14.00
2020,07,30,05,06,14.00
2020,07,30,05,07,14.00
2020,07,30,05,08,14.00
2020,07,30,05,09,14.00
2020,07,30,05,10,14.00
2020,07,30,05,11,14.00
2020,07,30,05,12,14.00
2020,07,30,05,13,14.00
2020,07,30,05,14,14.00
2020,07,30,05,15,14.00
2020,07,30,05,16,14.00
2020,07,30,05,17,14.00
2020,07,30,05,18,14.00
2020,07,30,05,19,14.00
2020,07,30,05,20,14.00
2020,07,30,05,21,14.00
2020,07,30,05,22,14.00
2020,07,30,05,23,14.00
2020,07,30,05,24,14.00
2020,07,30,05,25,14.00
2020,07,30,05,26,14.00
2020,07,30,05,27,14.00
2020,07,30,05,28,14.00
2020,07,30,05,29,14.10
2020,07,30,05,30,14.10
2020,07,30,05,31,14.10
2020,07,30,05,32,14.10
2020,07,30,05,33,14.10
2020,07,30,05,34,14.10
2020,07,30,05,35,14.10
2020,07,30,05,36,14.10
2020,07,30,05,37,14.10
2020,07,30,05,38,14.10
2020,07,30,05,39,14.10
2020,07,30,05,40,14.10
2020,07,30,05,41,14.00
2020,07,30,05,42,14.00
2020,07,30,05,43,14.00
2020,07,30,05,44,14.00
2020,07,30,05,45,14.00
2020,07,30,05,46,14.00
2020,07,30,05,47,14.00
2020,07,30,05,48,14.00
2020,07,30,05,49,14.00
2020,07,30,05,50,14.00
2020,07,30,05,51,14.00
2020,07,30,05,52,13.90
2020,07,30,05,53,13.90
2020,07,30,05,54,13.90
2020,07,30,05,55,13.90
2020,07,30,05,56,13.90
2020,07,30,05,57,13.90
2020,07,30,05,58,13.80
2020,07,30,05,59,13.80
2020,07,30,06,00,13.80
2020,07,30,06,01,13.80
2020,07,30,06,02,13.80
2020,07,30,06,03,13.80
2020,07,30,06,04,13.80
2020,07,30,06,05,13.80
2020,07,30,06,06,13.80
2020,07,30,06,07,13.80
2020,07,30,06,08,13.80
2020,07,30,06,09,13.80
2020,07,30,06,10,13.80
2020,07,30,06,11,13.80
2020,07,30,06,12,13.90
2020,07,30,06,13,13.90
2020,07,30,06,14,13.90
2020,07,30,06,15,13.90
2020,07,30,06,16,13.90
2020,07,30,06,17,13.90
2020,07,30,06,18,13.90
2020,07,30,06,19,13.90
2020,07,30,06,20,13.90
2020,07,30,06,21,13.80
2020,07,30,06,22,13.90
2020,07,30,06,23,13.80
2020,07,30,06,24,13.80
2020,07,30,06,25,13.80
2020,07,30,06,26,13.80
2020,07,30,06,27,13.80
2020,07,30,06,28,13.80
2020,07,30,06,29,13.90
2020,07,30,06,30,13.90
2020,07,30,06,31,13.90
2020,07,30,06,32,13.90
2020,07,30,06,33,13.90
2020,07,30,06,34,13.90
2020,07,30,06,35,13.90
2020,07,30,06,36,13.90
2020,07,30,06,37,13.90
2020,07,30,06,38,14.00
2020,07,30,06,39,14.00
2020,07,30,06,40,14.00
2020,07,30,06,41,14.00
2020,07,30,06,42,14.00
2020,07,30,06,43,14.00
2020,07,30,06,44,14.00
2020,07,30,06,45,14.00
2020,07,30,06,46,13.90
2020,07,30,06,47,13.90
2020,07,30,06,48,13.90
2020,07,30,06,49,13.90
2020,07,30,06,50,13.90
2020,07,30,06,51,13.90
2020,07,30,06,52,13.90
2020,07,30,06,53,13.90
2020,07,30,06,54,14.00
2020,07,30,06,55,14.00
2020,07,30,06,56,14.00
2020,07,30,06,57,14.00
2020,07,30,06,58,14.00
2020,07,30,06,59,14.00
2020,07,30,07,00,14.10
2020,07,30,07,01,14.10
2020,07,30,07,02,14.10
2020,07,30,07,03,14.20
2020,07,30,07,04,14.20
2020,07,30,07,05,14.30
2020,07,30,07,06,14.30
2020,07,30,07,07,14.30
2020,07,30,07,08,14.30
2020,07,30,07,09,14.40
2020,07,30,07,10,14.40
2020,07,30,07,11,14.50
2020,07,30,07,12,14.50
2020,07,30,07,13,14.60
2020,07,30,07,14,14.60
2020,07,30,07,15,14.70
2020,07,30,07,16,14.70
2020,07,30,07,17,14.80
2020,07,30,07,18,14.80
2020,07,30,07,19,14.90
2020,07,30,07,20,15.00
2020,07,30,07,21,15.00
2020,07,30,07,22,15.10
2020,07,30,07,23,15.20
2020,07,30,07,24,15.20
2020,07,30,07,25,15.20
2020,07,30,07,26,15.30
2020,07,30,07,27,15.30
2020,07,30,07,28,15.30
2020,07,30,07,29,15.30
2020,07,30,07,30,15.30
2020,07,30,07,31,15.30
2020,07,30,07,32,15.30
2020,07,30,07,33,15.40
2020,07,30,07,34,15.40
2020,07,30,07,35,15.40
2020,07,30,07,36,15.40
2020,07,30,07,37,15.50
2020,07,30,07,38,15.50
2020,07,30,07,39,15.50
2020,07,30,07,40,15.60
2020,07,30,07,41,15.60
2020,07,30,07,42,15.70
2020,07,30,07,43,15.70
2020,07,30,07,44,15.80
2020,07,30,07,45,15.80
2020,07,30,07,46,15.90
2020,07,30,07,47,16.00
2020,07,30,07,48,16.00
2020,07,30,07,49,16.10
2020,07,30,07,50,16.10
2020,07,30,07,51,16.20
2020,07,30,07,52,16.20
2020,07,30,07,53,16.30
2020,07,30,07,54,16.30
2020,07,30,07,55,16.30
2020,07,30,07,56,16.40
2020,07,30,07,57,16.40
2020,07,30,07,58,16.40
2020,07,30,07,59,16.40
2020,07,30,08,00,16.50
2020,07,30,08,01,16.60
2020,07,30,08,02,16.70
2020,07,30,08,03,16.70
2020,07,30,08,04,16.70
2020,07,30,08,05,16.80
2020,07,30,08,06,16.90
2020,07,30,08,07,17.00
2020,07,30,08,08,17.10
2020,07,30,08,09,17.10
2020,07,30,08,10,17.20
2020,07,30,08,11,17.30
2020,07,30,08,12,17.50
2020,07,30,08,13,17.60
2020,07,30,08,14,17.80
2020,07,30,08,15,17.90
2020,07,30,08,16,18.00
2020,07,30,08,17,18.10
2020,07,30,08,18,18.20
2020,07,30,08,19,18.30
2020,07,30,08,20,18.40
2020,07,30,08,21,18.50
2020,07,30,08,22,18.60
2020,07,30,08,23,18.70
2020,07,30,08,24,18.80
2020,07,30,08,25,18.90
2020,07,30,08,26,19.00
2020,07,30,08,27,19.20
2020,07,30,08,28,19.30
2020,07,30,08,29,19.50
2020,07,30,08,30,19.60
2020,07,30,08,31,19.80
2020,07,30,08,32,20.00
2020,07,30,08,33,20.20
2020,07,30,08,34,20.40
2020,07,30,08,35,20.60
2020,07,30,08,36,20.80
2020,07,30,08,37,21.00
2020,07,30,08,38,21.20
2020,07,30,08,39,21.40
2020,07,30,08,40,21.50
2020,07,30,08,41,21.60
2020,07,30,08,42,21.60
2020,07,30,08,43,21.60
2020,07,30,08,44,21.70
2020,07,30,08,45,21.70
2020,07,30,08,46,21.80
2020,07,30,08,47,21.90
2020,07,30,08,48,22.00
2020,07,30,08,49,22.10
2020,07,30,08,50,22.20
2020,07,30,08,51,22.30
2020,07,30,08,52,22.30
2020,07,30,08,53,22.40
2020,07,30,08,54,22.40
2020,07,30,08,55,22.50
2020,07,30,08,56,22.60
2020,07,30,08,57,22.60
2020,07,30,08,58,22.60
2020,07,30,08,59,22.70
2020,07,30,09,00,22.70
2020,07,30,09,01,22.80
2020,07,30,09,02,22.80
2020,07,30,09,03,22.90
2020,07,30,09,04,23.10
2020,07,30,09,05,23.10
2020,07,30,09,06,23.30
2020,07,30,09,07,23.40
2020,07,30,09,08,23.50
2020,07,30,09,09,23.60
2020,07,30,09,10,23.70
2020,07,30,09,11,23.70
2020,07,30,09,12,23.70
2020,07,30,09,13,23.70
2020,07,30,09,14,23.60
2020,07,30,09,15,23.70
2020,07,30,09,16,23.60
2020,07,30,09,17,23.60
2020,07,30,09,18,23.50
2020,07,30,09,19,23.50
2020,07,30,09,20,23.40
2020,07,30,09,21,23.40
2020,07,30,09,22,23.50
2020,07,30,09,23,23.50
2020,07,30,09,24,23.40
2020,07,30,09,25,23.40
2020,07,30,09,26,23.50
2020,07,30,09,27,23.60
2020,07,30,09,28,23.70
2020,07,30,09,29,23.80
2020,07,30,09,30,24.00
2020,07,30,09,31,24.10
2020,07,30,09,32,24.20
2020,07,30,09,33,24.40
2020,07,30,09,34,24.50
2020,07,30,09,35,24.60
2020,07,30,09,36,24.70
2020,07,30,09,37,24.70
2020,07,30,09,38,24.70
2020,07,30,09,39,24.70
2020,07,30,09,40,24.70
2020,07,30,09,41,24.70
2020,07,30,09,42,24.80
2020,07,30,09,43,24.80
2020,07,30,09,44,24.80
2020,07,30,09,45,24.80
2020,07,30,09,46,24.90
2020,07,30,09,47,25.00
2020,07,30,09,48,25.10
2020,07,30,09,49,25.10
2020,07,30,09,50,25.10
2020,07,30,09,51,25.10
2020,07,30,09,52,25.10
2020,07,30,09,53,25.10
2020,07,30,09,54,25.10
2020,07,30,09,55,25.20
2020,07,30,09,56,25.20
2020,07,30,09,57,25.30
2020,07,30,09,58,25.30
2020,07,30,09,59,25.40
2020,07,30,10,00,25.50
2020,07,30,10,01,25.50
2020,07,30,10,02,25.60
2020,07,30,10,03,25.60
2020,07,30,10,04,25.70
2020,07,30,10,05,25.70
2020,07,30,10,06,25.80
2020,07,30,10,07,25.80
2020,07,30,10,08,25.80
2020,07,30,10,09,25.80
2020,07,30,10,10,25.90
2020,07,30,10,11,26.10
2020,07,30,10,12,26.10
2020,07,30,10,13,26.00
2020,07,30,10,14,25.80
2020,07,30,10,15,25.70
2020,07,30,10,16,25.70
2020,07,30,10,17,25.70
2020,07,30,10,18,25.70
2020,07,30,10,19,25.60
2020,07,30,10,20,25.60
2020,07,30,10,21,25.60
2020,07,30,10,22,25.70
2020,07,30,10,23,25.80
2020,07,30,10,24,25.90
2020,07,30,10,25,26.00
2020,07,30,10,26,26.00
2020,07,30,10,27,25.90
2020,07,30,10,28,25.90
2020,07,30,10,29,26.00
2020,07,30,10,30,26.00
2020,07,30,10,31,26.10
2020,07,30,10,32,26.20
2020,07,30,10,33,26.20
2020,07,30,10,34,26.30
2020,07,30,10,35,26.40
2020,07,30,10,36,26.50
2020,07,30,10,37,26.50
2020,07,30,10,38,26.60
2020,07,30,10,39,26.70
2020,07,30,10,40,26.70
2020,07,30,10,41,26.80
2020,07,30,10,42,26.80
2020,07,30,10,43,26.70
2020,07,30,10,44,26.60
2020,07,30,10,45,26.60
2020,07,30,10,46,26.60
2020,07,30,10,47,26.60
2020,07,30,10,48,26.70
2020,07,30,10,49,26.70
2020,07,30,10,50,26.60
2020,07,30,10,51,26.40
2020,07,30,10,52,26.40
2020,07,30,10,53,26.30
2020,07,30,10,54,26.30
2020,07,30,10,55,26.30
2020,07,30,10,56,26.40
2020,07,30,10,57,26.50
2020,07,30,10,58,26.50
2020,07,30,10,59,26.60
2020,07,30,11,00,26.60
2020,07,30,11,01,26.70
2020,07,30,11,02,26.70
2020,07,30,11,03,26.80
2020,07,30,11,04,26.90
2020,07,30,11,05,27.00
2020,07,30,11,06,27.10
2020,07,30,11,07,27.10
2020,07,30,11,08,27.10
2020,07,30,11,09,27.20
2020,07,30,11,10,27.30
2020,07,30,11,11,27.40
2020,07,30,11,12,27.60
2020,07,30,11,13,27.70
2020,07,30,11,14,27.80
2020,07,30,11,15,27.80
2020,07,30,11,16,27.80
2020,07,30,11,17,27.80
2020,07,30,11,18,27.70
2020,07,30,11,19,27.60
2020,07,30,11,20,27.60
2020,07,30,11,21,27.60
2020,07,30,11,22,27.70
2020,07,30,11,23,27.70
2020,07,30,11,24,27.80
2020,07,30,11,25,27.90
2020,07,30,11,26,28.10
2020,07,30,11,27,28.20
2020,07,30,11,28,28.40
2020,07,30,11,29,28.50
2020,07,30,11,30,28.50
2020,07,30,11,31,28.40
2020,07,30,11,32,28.40
2020,07,30,11,33,28.40
2020,07,30,11,34,28.40
2020,07,30,11,35,28.30
2020,07,30,11,36,28.20
2020,07,30,11,37,28.20
2020,07,30,11,38,28.10
2020,07,30,11,39,28.00
2020,07,30,11,40,28.00
2020,07,30,11,41,28.00
2020,07,30,11,42,28.10
2020,07,30,11,43,28.20
2020,07,30,11,44,28.30
2020,07,30,11,45,28.30
2020,07,30,11,46,28.40
2020,07,30,11,47,28.40
2020,07,30,11,48,28.50
2020,07,30,11,49,28.60
2020,07,30,11,50,28.60
2020,07,30,11,51,28.70
2020,07,30,11,52,28.70
2020,07,30,11,53,28.80
2020,07,30,11,54,29.00
2020,07,30,11,55,29.10
2020,07,30,11,56,29.20
2020,07,30,11,57,29.20
2020,07,30,11,58,29.20
2020,07,30,11,59,29.10
2020,07,30,12,00,29.20
2020,07,30,12,01,29.20
2020,07,30,12,02,29.30
2020,07,30,12,03,29.30
2020,07,30,12,04,29.30
2020,07,30,12,05,29.30
2020,07,30,12,06,29.20
2020,07,30,12,07,29.20
2020,07,30,12,08,29.20
2020,07,30,12,09,29.10
2020,07,30,12,10,29.10
2020,07,30,12,11,29.10
2020,07,30,12,12,29.00
2020,07,30,12,13,29.00
2020,07,30,12,14,29.10
2020,07,30,12,15,29.20
2020,07,30,12,16,29.20
2020,07,30,12,17,29.20
2020,07,30,12,18,29.30
2020,07,30,12,19,29.40
2020,07,30,12,20,29.40
2020,07,30,12,21,29.50
2020,07,30,12,22,29.40
2020,07,30,12,23,29.50
2020,07,30,12,24,29.50
2020,07,30,12,25,29.40
2020,07,30,12,26,29.40
2020,07,30,12,27,29.50
2020,07,30,12,28,29.50
2020,07,30,12,29,29.50
2020,07,30,12,30,29.60
2020,07,30,12,31,29.60
2020,07,30,12,32,29.70
2020,07,30,12,33,29.70
2020,07,30,12,34,29.70
2020,07,30,12,35,29.70
2020,07,30,12,36,29.80
2020,07,30,12,37,29.80
2020,07,30,12,38,29.80
2020,07,30,12,39,29.70
2020,07,30,12,40,29.70
2020,07,30,12,41,29.70
2020,07,30,12,42,29.80
2020,07,30,12,43,29.80
2020,07,30,12,44,29.90
2020,07,30,12,45,30.00
2020,07,30,12,46,30.00
2020,07,30,12,47,30.10
2020,07,30,12,48,30.10
2020,07,30,12,49,30.10
2020,07,30,12,50,30.10
2020,07,30,12,51,30.20
2020,07,30,12,52,30.30
2020,07,30,12,53,30.40
2020,07,30,12,54,30.50
2020,07,30,12,55,30.70
2020,07,30,12,56,30.80
2020,07,30,12,57,30.80
2020,07,30,12,58,30.80
2020,07,30,12,59,30.90
2020,07,30,13,00,30.90
2020,07,30,13,01,31.10
2020,07,30,13,02,31.10
2020,07,30,13,03,31.20
2020,07,30,13,04,31.30
2020,07,30,13,05,31.30
2020,07,30,13,06,31.40
2020,07,30,13,07,31.40
2020,07,30,13,08,31.40
2020,07,30,13,09,31.40
2020,07,30,13,10,31.30
2020,07,30,13,11,31.30
2020,07,30,13,12,31.30
2020,07,30,13,13,31.30
2020,07,30,13,14,31.40
2020,07,30,13,15,31.50
2020,07,30,13,16,31.60
2020,07,30,13,17,31.60
2020,07,30,13,18,31.70
2020,07,30,13,19,31.70
2020,07,30,13,20,31.80
2020,07,30,13,21,31.80
2020,07,30,13,22,31.80
2020,07,30,13,23,31.80
2020,07,30,13,24,31.80
2020,07,30,13,25,31.80
2020,07,30,13,26,31.70
2020,07,30,13,27,31.60
2020,07,30,13,28,31.60
2020,07,30,13,29,31.60
2020,07,30,13,30,31.50
2020,07,30,13,31,31.60
2020,07,30,13,32,31.60
2020,07,30,13,33,31.60
2020,07,30,13,34,31.60
2020,07,30,13,35,31.50
2020,07,30,13,36,31.50
2020,07,30,13,37,31.40
2020,07,30,13,38,31.30
2020,07,30,13,39,31.20
2020,07,30,13,40,31.10
2020,07,30,13,41,31.10
2020,07,30,13,42,31.20
2020,07,30,13,43,31.30
2020,07,30,13,44,31.40
2020,07,30,13,45,31.50
2020,07,30,13,46,31.60
2020,07,30,13,47,31.80
2020,07,30,13,48,31.90
2020,07,30,13,49,31.90
2020,07,30,13,50,31.80
2020,07,30,13,51,31.70
2020,07,30,13,52,31.50
2020,07,30,13,53,31.40
2020,07,30,13,54,31.40
2020,07,30,13,55,31.40
2020,07,30,13,56,31.40
2020,07,30,13,57,31.50
2020,07,30,13,58,31.70
2020,07,30,13,59,31.80
2020,07,30,14,00,31.90
2020,07,30,14,01,32.10
2020,07,30,14,02,32.20
2020,07,30,14,03,32.20
2020,07,30,14,04,32.20
2020,07,30,14,05,32.30
2020,07,30,14,06,32.20
2020,07,30,14,07,32.20
2020,07,30,14,08,32.30
2020,07,30,14,09,32.40
2020,07,30,14,10,32.50
2020,07,30,14,11,32.60
2020,07,30,14,12,32.60
2020,07,30,14,13,32.60
2020,07,30,14,14,32.60
2020,07,30,14,15,32.60
2020,07,30,14,16,32.70
2020,07,30,14,17,32.80
2020,07,30,14,18,32.80
2020,07,30,14,19,32.80
2020,07,30,14,20,32.80
2020,07,30,14,21,32.70
2020,07,30,14,22,32.60
2020,07,30,14,23,32.60
2020,07,30,14,24,32.50
2020,07,30,14,25,32.50
2020,07,30,14,26,32.50
2020,07,30,14,27,32.50
2020,07,30,14,28,32.50
2020,07,30,14,29,32.60
2020,07,30,14,30,32.80
2020,07,30,14,31,32.90
2020,07,30,14,32,33.00
2020,07,30,14,33,32.90
2020,07,30,14,34,33.00
2020,07,30,14,35,33.10
2020,07,30,14,36,33.10
2020,07,30,14,37,33.20
2020,07,30,14,38,33.20
2020,07,30,14,39,33.10
2020,07,30,14,40,33.00
2020,07,30,14,41,32.80
2020,07,30,14,42,32.60
2020,07,30,14,43,32.50
2020,07,30,14,44,32.50
2020,07,30,14,45,32.40
2020,07,30,14,46,32.40
2020,07,30,14,47,32.30
2020,07,30,14,48,32.40
2020,07,30,14,49,32.50
2020,07,30,14,50,32.60
2020,07,30,14,51,32.70
2020,07,30,14,52,32.80
2020,07,30,14,53,32.90
2020,07,30,14,54,32.90
2020,07,30,14,55,33.00
2020,07,30,14,56,32.90
2020,07,30,14,57,32.90
2020,07,30,14,58,32.90
2020,07,30,14,59,33.10
2020,07,30,15,00,33.20
2020,07,30,15,01,33.40
2020,07,30,15,02,33.60
2020,07,30,15,03,33.80
2020,07,30,15,04,33.90
2020,07,30,15,05,34.00
2020,07,30,15,06,34.10
2020,07,30,15,07,34.10
2020,07,30,15,08,34.10
2020,07,30,15,09,33.90
2020,07,30,15,10,33.90
2020,07,30,15,11,33.90
2020,07,30,15,12,33.90
2020,07,30,15,13,33.90
2020,07,30,15,14,33.70
2020,07,30,15,15,33.60
2020,07,30,15,16,33.50
2020,07,30,15,17,33.50
2020,07,30,15,18,33.50
2020,07,30,15,19,33.60
2020,07,30,15,20,33.70
2020,07,30,15,21,33.80
2020,07,30,15,22,33.80
2020,07,30,15,23,33.80
2020,07,30,15,24,33.90
2020,07,30,15,25,33.90
2020,07,30,15,26,33.80
2020,07,30,15,27,33.90
2020,07,30,15,28,34.00
2020,07,30,15,29,33.90
2020,07,30,15,30,34.00
2020,07,30,15,31,34.10
2020,07,30,15,32,34.10
2020,07,30,15,33,34.00
2020,07,30,15,34,34.00
2020,07,30,15,35,33.90
2020,07,30,15,36,34.00
2020,07,30,15,37,33.90
2020,07,30,15,38,33.90
2020,07,30,15,39,33.90
2020,07,30,15,40,33.90
2020,07,30,15,41,33.90
2020,07,30,15,42,34.00
2020,07,30,15,43,34.00
2020,07,30,15,44,34.00
2020,07,30,15,45,34.00
2020,07,30,15,46,34.10
2020,07,30,15,47,34.10
2020,07,30,15,48,34.20
2020,07,30,15,49,34.20
2020,07,30,15,50,34.00
2020,07,30,15,51,34.00
2020,07,30,15,52,34.00
2020,07,30,15,53,33.90
2020,07,30,15,54,33.80
2020,07,30,15,55,33.90
2020,07,30,15,56,33.90
2020,07,30,15,57,33.90
2020,07,30,15,58,34.00
2020,07,30,15,59,34.00
2020,07,30,16,00,34.10
2020,07,30,16,01,34.20
2020,07,30,16,02,34.30
2020,07,30,16,03,34.40
2020,07,30,16,04,34.50
2020,07,30,16,05,34.50
2020,07,30,16,06,34.60
2020,07,30,16,07,34.50
2020,07,30,16,08,34.60
2020,07,30,16,09,34.60
2020,07,30,16,10,34.60
2020,07,30,16,11,34.60
2020,07,30,16,12,34.60
2020,07,30,16,13,34.60
2020,07,30,16,14,34.60
2020,07,30,16,15,34.60
2020,07,30,16,16,34.70
2020,07,30,16,17,34.70
2020,07,30,16,18,34.80
2020,07,30,16,19,34.90
2020,07,30,16,20,35.00
2020,07,30,16,21,35.00
2020,07,30,16,22,35.10
2020,07,30,16,23,35.20
2020,07,30,16,24,35.20
2020,07,30,16,25,35.30
2020,07,30,16,26,35.20
2020,07,30,16,27,35.10
2020,07,30,16,28,35.10
2020,07,30,16,29,35.10
2020,07,30,16,30,35.10
2020,07,30,16,31,35.10
2020,07,30,16,32,35.20
2020,07,30,16,33,35.30
2020,07,30,16,34,35.40
2020,07,30,16,35,35.40
2020,07,30,16,36,35.40
2020,07,30,16,37,35.40
2020,07,30,16,38,35.30
2020,07,30,16,39,35.20
2020,07,30,16,40,35.20
2020,07,30,16,41,35.20
2020,07,30,16,42,35.00
2020,07,30,16,43,34.90
2020,07,30,16,44,34.90
2020,07,30,16,45,34.90
2020,07,30,16,46,35.00
2020,07,30,16,47,35.00
2020,07,30,16,48,35.10
2020,07,30,16,49,35.10
2020,07,30,16,50,35.00
2020,07,30,16,51,35.00
2020,07,30,16,52,34.90
2020,07,30,16,53,34.90
2020,07,30,16,54,35.00
2020,07,30,16,55,35.00
2020,07,30,16,56,34.90
2020,07,30,16,57,35.00
2020,07,30,16,58,35.00
2020,07,30,16,59,35.00
2020,07,30,17,00,35.10
2020,07,30,17,01,35.00
2020,07,30,17,02,34.90
2020,07,30,17,03,34.70
2020,07,30,17,04,34.60
2020,07,30,17,05,34.50
2020,07,30,17,06,34.60
2020,07,30,17,07,34.60
2020,07,30,17,08,34.60
2020,07,30,17,09,34.70
2020,07,30,17,10,34.70
2020,07,30,17,11,34.70
2020,07,30,17,12,34.60
2020,07,30,17,13,34.50
2020,07,30,17,14,34.40
2020,07,30,17,15,34.40
2020,07,30,17,16,34.40
2020,07,30,17,17,34.30
2020,07,30,17,18,34.30
2020,07,30,17,19,34.30